Погода в Заозерье

Россия / Республика Карелия     61°51′47″N   34°22′43″E
темп.,
°C
ветер,
м/с
пор.,
м/с
влажн.,
%
обл.,
%
осадки,
мм/ч
давл.,
гПа
погр.,
м
13 мая, чт
чт1300:00+13ююз11650 0.0 102111
03:00+12ююз22680 0.0 102014
06:00+12ююв23731 0.0 101852
09:00+16юв34625 0.0 1018233
12:00+14в256838 0.0 1018251
15:00+14вюв497043 0.1 1016191
18:00+14вюв257158 0.3 1014166
21:00+14ююв33785 0.3 101336
14 мая, пт
пт1400:00+12ю11834 0.0 101210
03:00+9св2291100 0.0 101017
06:00+9ю369798 0.8 1009141
09:00+12ююз587935 0.9 1011645
12:00+14ю586123 0.1 10121119
15:00+15юз475191 0.4 10121277
18:00+12юз2569100 0.4 1012328
21:00+10вюв2280100 0.6 101234
15 мая, сб
сб1500:00+10ююв2482100 0.0 101289
03:00+10ю248394 0.0 101271
06:00+10ююв248360 0.0 101187
09:00+12вюв347325 0.0 1011274
12:00+11в347238 0.0 1010342
15:00+13в357040 0.1 1009297
18:00+12всв237557 0.0 1008166
21:00+10ссз118787 0.0 100710
16 мая, вс
вс1600:00+8св1289100 0.0 100714
03:00+8ссв239694 0.0 100828
06:00+8с4895100 0.0 1008163
09:00+10ссв588775 0.0 1009271
12:00+12ссв467784 0.0 1010443
15:00+13ссв4572100 0.0 1011562
18:00+12с577497 0.0 1011293
21:00+10с368177 0.0 1012106
17 мая, пн
пн1700:00+8с368667 0.0 1013114
03:00+6с35925 0.0 101568
06:00+7с248834 0.0 1015109
09:00+9св237930 0.0 1016229
12:00+11в237338 0.0 1016304
15:00+12в227038 0.0 1016351
18:00+11вюв237438 0.0 1016154
21:00+8ююв128760 0.0 101642